Regional Weather Roundup
Issued by NWS San Diego, CA

Home | Current Version | Previous Version | Text Only | Print | Product List | Glossary On
Versions: 1 2 3 4 5 6 7 8 9 10 11 12 13 14 15 16 17 18 19 20 21 22 23 24 25 26 27 28 29 30 31 32 33 34 35 36 37 38 39 40 41 42 43 44 45 46 47 48 49 50
273
ASUS46 KSGX 132111
RWRSGX

SAN DIEGO HOURLY WEATHER ROUNDUP
NATIONAL WEATHER SERVICE SAN DIEGO CA
100 PM PST WED DEC 13 2017

NOTE: "FAIR" INDICATES FEW OR NO CLOUDS BELOW 12,000 FEET WITH NO
SIGNIFICANT WEATHER AND/OR OBSTRUCTIONS TO VISIBILITY.

CAZ042-043-060-061-PZZ750-775-132200-

GREATER SAN DIEGO AREA

CITY           SKY/WX    TMP DP  RH WIND       PRES   REMARKS
SAN DIEGO AP   FAIR      77   8   7 SW6       29.96F
NATIONAL CITY    N/A     77  19  11 CALM      29.97F
CHULA VISTA      N/A     79  13   8 W6        29.86F
IMPERIAL BEACH FAIR      72  22  15 W8        29.96F
BROWN FIELD    FAIR      79   4   5 NW7       29.95F
MIRAMAR MCAS   FAIR      84   7   5 W7        29.95F
MONTGOMERY FLD FAIR      82  -2   4 W9        29.96F
GILLESPIE FLD  SUNNY    N/A N/A N/A SW6       29.95F

$$

NORTH SAN DIEGO COUNTY

CITY           SKY/WX    TMP DP  RH WIND       PRES   REMARKS
CAMP PENDLETON FAIR      78  16   9 SW7       29.94F
OCEANSIDE AP   NOT AVBL
OCEANSIDE HBR    N/A     67  47  48 W3        29.96F
VISTA            N/A     81  19  10 W1        29.92F
CARLSBAD       FAIR      75  18  11 SW6       29.94F
DEL MAR          N/A     74  24  15 W1        29.96F
LA JOLLA SCRIP   N/A     73  35  24 W3        29.94F
FALLBROOK        N/A     82   9   6 CALM      29.95F
ESCONDIDO        N/A     82  18   9 SW2       29.95F
SAN MARCOS       N/A     79  15   9 W3        29.96F
POWAY            N/A     82  12   7 CALM      29.97F

$$

EAST SAN DIEGO COUNTY

CITY           SKY/WX    TMP DP  RH WIND       PRES   REMARKS
RAMONA         FAIR      80  12   7 NW9       29.97F
SANTEE LAKES     N/A     81  11   7 W3        29.93F
LA MESA          N/A     78   9   7 SW1       29.89F
JAMUL            N/A     80  14   8 CALM      29.96F
DESCANSO N       N/A     73  16  11 W3        29.88F
MT. LAGUNA OBS   N/A     56   7  14 E10       29.96F
CAMPO            N/A     75   3   6 NE17      29.97F

$$

ORANGE COUNTY AND THE LOS ANGELES BASIN

CITY           SKY/WX    TMP DP  RH WIND       PRES   REMARKS
JOHN WAYNE AP  FAIR      72  49  44 SW9       29.95F
LAGUNA BEACH     N/A     68  48  48 CALM      29.91F
LAKE FOREST FR   N/A     83  16   8 NE3       29.81F
HUNTINGTON BCH   N/A     68  54  60 S5        29.96F
LOS ALAMITOS   SUNNY     74  42  31 S9        29.94F
FULLERTON      FAIR      82  12   7 VRB5      29.93F
LONG BEACH     FAIR      77  31  18 S6        29.95F
L.A. AP        FAIR      73  38  27 W12       29.95F
L.A. DOWNTOWN  FAIR      80  18  10 CALM      29.93F

$$

THE INLAND EMPIRE

CITY           SKY/WX    TMP DP  RH WIND       PRES   REMARKS
CORONA         FAIR      83  13   7 MISG      29.95F
CHINO          FAIR      83  20   9 CALM      29.96F
ONTARIO        FAIR      82   0   4 W7        29.96F
SAN BERNARDINO SUNNY     84   9   6 CALM      29.99F
RIVERSIDE AP   FAIR      80  11   7 W7        29.96F
MORENO VALLEY    N/A     82  19   9 S5        28.11F
MARCH ARB      FAIR      81   4   5 NW8       29.97F
HORSETHIEF CYN   N/A     81  -1   4 E5        29.96F
PERRIS           N/A     79  17   9 CALM      29.93F
HEMET EAST       N/A     76  11   8 CALM      30.03F
FRENCH VALLEY  FAIR      79  14   8 S5        29.97F
TEMECULA         N/A     76  22  13 CALM      29.98F

$$

SAN BERNARDINO AND RIVERSIDE COUNTY MOUNTAINS

CITY           SKY/WX    TMP DP  RH WIND       PRES   REMARKS
BIG BEAR AP    FAIR      57  -6   7 E7        30.20F
ANGELUS OAKS     N/A     61  16  17 CALM      29.95F

$$

SOUTHERN DESERT INCLUDING THE COACHELLA VALLEY

CITY           SKY/WX    TMP DP  RH WIND       PRES   REMARKS
PALM SPRINGS   FAIR      78  18  10 CALM      29.98F
THOUSAND PALMS   N/A     77  16  10 N2        29.94F
PALM DESERT      N/A     77  32  19 CALM      27.62S
THERMAL        FAIR      77  22  13 SE6       29.94F
BLYTHE         FAIR      70   0   6 SE3       29.99F
IMPERIAL AP    FAIR      78   4   5 CALM      29.95F
EL CENTRO NAS  FAIR      77   7   7 CALM      29.97F
YUMA AZ        FAIR      76   9   7 NE9       29.96F
MEXICALI       MOSUNNY   79   5   6 CALM      29.97

$$

UPPER DESERT

CITY           SKY/WX    TMP DP  RH WIND       PRES   REMARKS
HESPERIA         N/A     69   2   7 N3        30.23F
APPLE VALLEY     N/A     71  -4   5 E5        30.17F
PALMDALE       FAIR      64  -9   5 CALM      30.10F
LANCASTER      FAIR      65  -6   5 CALM      30.09F
EDWARDS AFB    SUNNY     60 -11   5 CALM      30.07F
DAGGETT        FAIR      67  -5   5 W6        30.07F
29 PALMS N     FAIR      74 -11   3 N3        30.10F
NEEDLES        FAIR      74   5   7 N5        29.99F

$$

REGIONAL REPORTS

CITY           SKY/WX    TMP DP  RH WIND       PRES   REMARKS
SANTA BARBARA  FAIR      75  23  14 SW5       29.94F SMOKE
SANDBERG       FAIR      71 -10   4 NE8       30.15F
LAS VEGAS NV   FAIR      68   7   9 CALM      30.05F
PHOENIX AZ     FAIR      75   9   8 CALM      29.95F
TIJUANA        MOSUNNY   81  18   9 NW6       29.97
ENSENADA NW      N/A     69  32  25 W14       29.87F

$$

OFFSHORE ISLANDS

CITY           SKY/WX    TMP DP  RH WIND       PRES   REMARKS
CATALINA ARPT  FAIR      76   6   7 VRB3      30.01F
SAN CLEMENTE I MOSUNNY   74  40  29 W5        29.97F
SAN NICOLAS IS FAIR      78  32  18 N3        29.97F

$$

MARINE AND OFFSHORE BUOY REPORTS

STATION/POSITION SKY/WX   TEMP    WIND        PRES    VSBY  SWELL
                          AIR SEA DIR/SP/G                  HT/PER/DIR
                          (F)     (DEG/KT/KT) (MB)    (MI)  (FT/S/D)
TANNER BANKS               62 63   20/  2/  6 1014.5F         7/300/12
S CLEMENTE BASIN           64 64  280/  4/  6 1014.5F         7/260/14
SAN NICOLAS IS.               61                N/A           8/300/13
SO. S. ROSA ISLA           60 60  300/  8/ 12 1014.8F         7/290/13
W. S. BARBARA CH           61 60  300/ 12/ 14 1014.5F         7/270/13
M. S. BARBARA CH           62 61  220/  4/  6 1015.1
S. MONICA BASIN               61   CALM  /  2 1014.2F         5/270/13
S PEDRO CHANNEL               63                N/A           3/270/13
CMP PENDLETON NS              63                N/A           2/240/13
OCEANSIDE OFFSHR              64                N/A           2/230/13
TORREY PINES OTR              63                N/A           3/260/13
SAN DIEGO BAY                 64              1014.7F
POINT LOMA SOUTH              65                N/A           5/260/13

$$





USA.gov is the U.S. government's official web portal to all federal, state and local government web resources and services.